Date,TemperatureHighF,TemperatureAvgF,TemperatureLowF,DewpointHighF,DewpointAvgF,DewpointLowF,HumidityHigh,HumidityAvg,HumidityLow,PressureMaxIn,PressureMinIn,WindSpeedMaxMPH,WindSpeedAvgMPH,GustSpeedMaxMPH,PrecipitationSumIn
2013-1-1,50.8,48.3,44.1,47.2,41.5,29.7,91,79,48,30.13,29.95,14,2,18,0.48
2013-1-2,52.7,48.9,45.2,46.8,44.1,42.3,91,84,69,30.14,29.90,4,1,9,0.15
2013-1-3,46.2,42.1,34.6,42.2,38.2,27.4,91,86,74,30.30,30.09,8,1,10,0.00
2013-1-4,53.5,39.6,30.2,33.2,26.3,22.0,82,60,40,30.37,30.25,9,2,17,0.00
2013-1-5,46.9,39.6,28.0,35.8,25.6,21.1,83,58,41,30.40,30.23,9,2,12,0.01
2013-1-6,54.8,45.2,38.3,43.4,37.8,30.4,85,76,63,30.24,30.03,10,3,17,0.01
2013-1-7,54.4,41.2,32.0,32.4,30.0,28.0,85,66,40,30.41,30.20,12,1,13,0.00
2013-1-8,53.3,41.7,29.9,42.3,35.2,26.8,89,78,62,30.46,30.36,4,0,6,0.00
2013-1-9,63.4,55.2,47.7,55.3,49.0,40.9,88,80,71,30.44,30.36,5,0,8,0.00
2013-1-10,68.0,56.9,47.1,55.6,51.1,44.3,91,82,63,30.47,30.32,9,1,13,0.01
2013-1-11,56.3,50.8,49.7,52.7,48.3,47.2,92,91,88,30.32,30.15,4,1,10,0.41
2013-1-12,72.9,61.7,51.6,64.0,57.2,49.0,92,86,66,30.16,30.06,13,3,20,0.07
2013-1-13,68.8,62.2,57.6,62.4,58.2,54.7,91,87,80,30.11,30.02,12,2,17,0.01
2013-1-14,66.8,63.6,59.3,63.1,60.4,56.2,92,89,87,30.13,30.05,12,2,18,0.00
2013-1-15,63.6,52.0,45.2,60.4,49.7,43.3,94,92,89,30.15,30.06,8,2,13,0.01
2013-1-16,51.8,47.9,44.5,49.8,46.1,42.6,94,93,93,30.07,29.99,9,0,9,1.57
2013-1-17,52.6,47.8,37.0,50.9,45.8,34.9,94,93,90,30.23,29.78,14,3,30,1.53
2013-1-18,54.3,40.8,31.4,34.8,29.9,26.8,92,68,35,30.53,30.23,10,2,20,0.66
2013-1-19,54.2,40.5,27.0,32.6,28.6,24.7,91,66,35,30.52,30.21,9,3,18,0.23
2013-1-20,65.1,49.8,37.2,41.4,33.6,28.8,76,55,36,30.21,30.05,20,3,21,0.00
2013-1-21,61.7,46.0,31.7,35.2,28.2,17.9,87,55,26,30.10,29.98,16,4,25,0.00
2013-1-22,47.0,35.6,27.6,21.7,18.2,13.9,68,50,33,30.30,30.05,8,2,12,0.00
2013-1-23,52.1,37.4,23.1,31.4,22.0,11.0,72,55,37,30.39,30.13,14,3,17,0.00
2013-1-24,50.3,43.0,28.2,36.7,23.7,8.6,76,49,24,30.50,30.04,14,5,25,0.00
2013-1-25,30.7,27.1,24.4,28.4,18.7,10.4,91,72,49,30.53,30.17,12,2,21,0.00
2013-1-26,53.9,38.2,27.7,37.6,31.7,25.7,93,79,51,30.38,30.15,5,0,8,0.05
2013-1-27,45.9,37.5,29.6,35.0,31.1,26.8,94,78,61,30.59,30.38,9,1,12,0.00
2013-1-28,52.0,45.8,40.6,46.1,39.1,33.0,89,77,65,30.50,30.29,12,2,14,0.00
2013-1-29,68.9,59.7,42.8,60.7,54.9,40.1,92,84,73,30.29,30.02,12,4,22,0.01
2013-1-30,69.9,63.0,47.5,63.7,58.8,44.4,92,86,80,30.02,29.47,18,8,32,1.17
2013-1-31,50.0,42.8,36.1,44.3,28.6,21.9,89,59,34,30.09,29.60,23,8,26,0.25
2013-2-1,44.9,37.5,25.0,30.1,19.3,11.3,71,50,29,30.39,30.01,12,3,27,0.00
2013-2-2,44.3,32.3,21.4,36.0,22.3,12.6,92,70,29,30.42,30.10,16,4,23,0.06
2013-2-3,54.2,42.5,33.4,38.9,30.8,24.7,91,66,33,30.10,29.92,23,6,26,0.00
2013-2-4,49.3,39.2,29.2,30.7,26.7,22.5,80,62,40,30.17,30.05,9,2,12,0.00
2013-2-5,62.1,49.5,35.4,46.7,38.3,30.1,86,66,47,30.05,29.94,14,6,22,0.00
2013-2-6,67.7,50.3,37.0,40.9,34.9,29.0,92,61,25,30.21,30.02,8,1,12,0.00
2013-2-7,48.0,44.4,41.6,40.8,34.8,28.1,93,71,48,30.25,30.02,13,4,20,0.27
2013-2-8,59.4,47.4,40.4,50.5,40.3,29.0,94,78,40,30.16,29.93,18,4,23,0.23
2013-2-9,62.2,46.6,37.6,31.4,27.1,23.1,72,49,24,30.35,30.15,21,3,25,0.01
2013-2-10,57.3,46.1,36.8,45.6,35.1,27.4,93,67,38,30.45,30.20,6,1,13,0.07
2013-2-11,56.9,52.0,45.6,53.8,49.8,43.7,94,92,87,30.20,29.99,14,3,21,0.11
2013-2-12,59.2,50.2,43.7,48.3,38.9,29.9,93,69,33,30.12,29.91,5,1,12,0.01
2013-2-13,52.4,44.9,37.2,46.8,41.9,33.4,94,90,75,29.93,29.70,14,2,20,0.01
2013-2-14,53.0,41.3,32.0,37.7,33.8,29.1,90,76,53,30.10,29.92,9,2,17,0.35
2013-2-15,61.4,46.6,31.0,42.5,34.5,29.2,94,67,39,30.13,29.97,13,2,20,0.10
2013-2-16,42.3,37.1,29.3,34.7,27.8,16.8,91,69,52,30.09,29.87,9,2,14,0.05
2013-2-17,47.3,33.6,22.4,19.4,13.1,8.2,74,45,21,30.31,30.08,9,2,20,0.09
2013-2-18,55.7,40.3,24.9,28.2,23.8,16.5,81,54,33,30.42,30.24,10,2,18,0.01
2013-2-19,53.0,43.5,37.4,44.9,33.0,16.9,93,69,33,30.25,29.94,14,4,20,0.20
2013-2-20,56.2,41.2,25.3,26.2,19.7,16.3,76,45,24,30.17,30.08,10,2,16,0.00
2013-2-21,58.4,44.1,29.0,40.0,23.7,16.0,87,47,23,30.26,30.11,8,1,9,0.06
2013-2-22,42.8,39.6,38.4,39.5,37.6,36.3,94,93,87,30.29,30.15,8,2,14,0.41
2013-2-23,45.0,41.6,38.2,43.2,39.9,36.6,95,94,91,30.17,29.89,5,1,10,0.39
2013-2-24,66.6,50.0,35.2,46.7,39.6,30.9,95,71,36,30.03,29.90,8,1,12,0.00
2013-2-25,47.5,42.1,36.5,32.8,30.5,28.7,86,64,52,30.14,30.01,14,5,23,0.01
2013-2-26,42.8,37.5,33.3,41.2,35.4,31.0,94,92,86,30.03,29.61,14,6,20,1.33
2013-2-27,56.4,47.3,37.3,40.4,37.4,33.8,91,70,53,29.82,29.67,17,6,21,0.00
2013-2-28,50.4,43.5,35.2,37.8,29.6,25.7,72,59,45,29.90,29.72,16,5,21,0.00
2013-3-1,50.5,40.0,28.8,33.1,29.3,25.1,87,67,48,29.94,29.85,8,1,9,0.00
2013-3-2,45.6,39.9,32.7,35.2,31.1,23.5,91,71,55,29.94,29.83,14,2,14,0.01
2013-3-3,47.4,35.5,27.2,24.9,21.0,18.0,75,57,37,30.03,29.90,8,2,16,0.00
2013-3-4,54.5,39.7,24.2,30.7,22.9,16.2,77,53,26,30.17,30.03,13,2,14,0.00
2013-3-5,52.6,46.5,40.8,46.2,39.6,29.1,93,77,52,30.07,29.63,21,3,21,0.03
2013-3-6,48.2,39.4,33.6,34.3,27.2,20.7,77,62,45,30.12,29.68,25,6,27,0.04
2013-3-7,59.6,42.5,28.2,36.3,29.5,24.8,94,63,38,30.24,30.12,12,2,17,0.15
2013-3-8,64.3,44.7,27.5,31.3,23.0,12.0,87,50,15,30.31,30.18,16,2,21,0.15
2013-3-9,64.5,47.0,31.9,35.2,29.9,23.2,77,54,29,30.35,30.22,12,1,14,0.00
2013-3-10,67.4,52.6,38.5,41.4,37.0,32.0,79,58,35,30.28,30.13,14,1,14,0.00
2013-3-11,66.1,55.8,47.4,54.3,48.8,38.8,93,78,63,30.15,29.80,23,3,25,0.62
2013-3-12,69.2,57.6,44.9,55.6,47.1,32.9,94,71,39,29.98,29.72,12,3,14,0.18
2013-3-13,56.2,44.9,32.7,33.2,26.9,20.1,86,53,26,30.17,29.98,23,4,27,0.00
2013-3-14,53.1,40.8,31.2,27.6,20.4,13.8,60,45,26,30.31,30.16,20,4,26,0.00
2013-3-15,70.8,51.7,30.1,44.9,32.8,18.5,76,50,35,30.20,29.90,22,5,29,0.00
2013-3-16,77.8,66.4,57.5,51.6,46.7,43.8,63,50,37,29.91,29.72,30,9,35,0.00
2013-3-17,75.0,64.3,49.6,53.9,47.9,42.6,77,56,42,30.02,29.83,20,5,22,0.00
2013-3-18,49.4,42.5,40.1,42.5,39.8,37.8,94,90,77,30.07,29.86,16,4,20,0.38
2013-3-19,68.8,53.1,41.4,46.3,34.4,20.8,95,58,19,30.04,29.85,21,3,30,0.01
2013-3-20,57.1,49.0,42.6,25.1,18.7,13.4,44,30,23,30.09,29.79,23,3,26,0.00
2013-3-21,51.2,38.6,26.9,31.9,21.3,11.8,88,54,26,29.96,29.79,18,2,21,0.00
2013-3-22,47.9,38.0,26.7,29.6,21.7,16.8,75,53,37,30.09,29.96,14,2,17,0.00
2013-3-23,51.3,45.3,41.5,46.6,39.6,29.2,92,81,54,30.04,29.87,6,1,9,0.04
2013-3-24,45.4,43.6,41.3,43.1,41.5,39.4,94,92,90,29.91,29.55,22,3,25,1.05
2013-3-25,46.4,40.6,34.5,40.8,28.4,21.7,94,64,40,29.94,29.55,31,7,34,0.02
2013-3-26,49.5,38.7,27.4,28.7,25.6,23.0,84,61,39,30.20,29.93,16,3,20,0.00
2013-3-27,55.9,41.7,28.8,29.5,26.1,23.3,84,57,31,30.28,30.16,16,2,17,0.00
2013-3-28,62.3,44.9,30.1,29.3,25.5,22.2,79,50,23,30.32,30.16,17,2,18,0.00
2013-3-29,60.2,46.1,30.1,43.1,30.5,22.3,82,57,31,30.34,30.20,20,2,21,0.00
2013-3-30,66.5,54.2,43.6,48.3,43.5,41.3,93,70,42,30.21,30.02,14,2,17,0.02
2013-3-31,68.3,58.4,50.6,57.5,53.1,47.4,95,83,61,30.04,29.82,27,4,27,0.46
2013-4-1,73.1,62.2,50.5,55.7,45.0,37.5,92,58,30,29.95,29.81,22,4,27,0.02
2013-4-2,69.1,56.3,42.7,37.8,33.2,26.4,74,44,23,30.12,29.94,21,3,25,0.00
2013-4-3,60.8,53.7,47.8,37.6,28.6,21.7,59,38,29,30.23,30.08,17,2,18,0.00
2013-4-4,51.1,42.7,36.9,38.0,34.3,27.1,93,75,49,30.22,29.98,20,4,22,0.31
2013-4-5,67.1,50.1,34.9,48.6,39.4,31.5,95,71,27,30.05,29.90,12,1,16,0.19
2013-4-6,70.5,56.5,40.7,44.2,38.2,35.2,85,54,28,30.19,30.05,13,2,17,0.00
2013-4-7,71.3,58.4,42.7,51.2,45.7,37.5,87,64,43,30.21,30.07,18,3,21,0.00
2013-4-8,77.1,64.8,51.8,59.4,53.9,46.7,87,70,47,30.14,30.02,17,3,26,0.00
2013-4-9,81.5,69.0,55.3,61.1,56.5,51.0,87,66,45,30.16,30.06,18,3,21,0.00
2013-4-10,83.3,72.1,60.6,63.8,59.5,55.8,85,66,46,30.07,29.90,16,4,21,0.02
2013-4-11,79.0,69.4,62.0,66.3,61.8,57.3,92,78,57,29.93,29.67,17,4,20,0.18
2013-4-12,77.2,68.4,58.1,66.0,53.8,38.5,94,65,30,29.79,29.61,26,6,30,1.01
2013-4-13,78.7,60.8,44.1,47.3,43.2,39.9,86,56,27,30.03,29.79,13,1,22,0.00
2013-4-14,70.3,59.4,47.3,54.8,47.4,40.2,91,67,39,30.10,29.98,10,1,16,0.04
2013-4-15,70.8,61.3,55.1,61.3,56.9,52.9,95,86,64,30.21,29.98,12,1,12,0.24
2013-4-16,80.3,67.4,59.3,63.9,59.8,56.3,90,78,54,30.29,30.18,9,1,10,0.00
2013-4-17,83.0,66.8,60.7,69.7,61.9,57.8,95,85,57,30.24,30.12,18,1,21,0.47
2013-4-18,79.3,67.8,58.2,65.7,61.6,56.7,95,82,56,30.16,29.97,14,1,17,0.01
2013-4-19,70.0,63.1,51.1,65.8,59.8,48.9,93,89,83,29.97,29.77,25,5,26,0.88
2013-4-20,66.5,51.6,36.0,48.9,38.1,32.1,93,63,33,30.29,29.93,14,2,20,0.00
2013-4-21,65.1,52.9,39.8,45.1,39.0,33.8,88,62,36,30.44,30.29,23,3,25,0.00
2013-4-22,64.3,52.5,45.0,44.4,40.9,37.4,86,67,41,30.42,30.23,20,3,27,0.00
2013-4-23,73.9,56.5,40.9,51.5,44.4,35.8,85,66,41,30.30,30.11,13,2,18,0.00
2013-4-24,73.0,61.3,48.3,60.7,55.0,46.1,94,81,61,30.16,30.03,21,5,29,0.00
2013-4-25,76.4,62.0,50.3,58.8,44.4,30.5,92,56,28,30.29,30.07,12,2,13,0.00
2013-4-26,73.7,58.9,43.0,49.1,40.2,32.9,80,53,31,30.44,30.29,14,2,20,0.00
2013-4-27,61.9,56.2,53.7,56.5,52.2,46.2,94,87,65,30.36,30.26,10,1,12,0.33
2013-4-28,53.9,53.1,51.1,52.5,51.6,49.5,95,95,94,30.27,30.07,8,1,10,1.97
2013-4-29,73.0,61.2,53.7,62.1,56.6,52.3,95,86,62,30.09,29.94,16,2,18,0.08
2013-4-30,76.1,62.9,51.0,65.4,57.8,49.3,95,84,58,30.17,29.99,10,1,14,0.00
2013-5-1,67.4,61.7,56.1,58.1,56.2,53.2,91,82,71,30.27,30.17,18,4,25,0.00
2013-5-2,61.7,58.3,56.4,58.1,55.7,54.4,94,91,87,30.29,30.23,16,4,20,0.04
2013-5-3,63.7,58.3,55.3,58.0,55.1,53.3,94,89,77,30.23,30.09,21,4,21,0.09
2013-5-4,58.7,53.7,50.6,54.4,49.3,45.0,94,85,69,30.09,29.96,23,6,26,0.80
2013-5-5,53.4,51.5,48.9,52.0,50.0,47.3,95,94,94,29.99,29.84,20,5,22,2.89
2013-5-6,63.9,56.6,47.5,54.8,50.8,45.3,95,82,62,29.93,29.82,17,3,18,0.01
2013-5-7,70.3,56.2,42.7,56.0,49.2,40.8,94,79,44,29.98,29.88,12,1,16,0.09
2013-5-8,74.0,61.8,48.3,61.0,54.5,46.6,95,79,58,30.04,29.94,17,3,22,0.00
2013-5-9,81.7,66.3,51.1,63.9,56.7,49.2,94,74,44,30.10,30.01,14,1,16,0.00
2013-5-10,79.8,68.3,55.0,67.5,60.6,53.0,94,78,56,30.09,29.96,20,2,22,0.04
2013-5-11,75.3,69.1,62.3,66.2,62.2,58.7,89,79,66,29.98,29.82,20,5,23,0.01
2013-5-12,75.1,63.1,48.9,59.7,47.4,32.1,90,61,22,30.06,29.87,17,2,21,0.00
2013-5-13,72.1,55.6,39.9,41.0,37.5,32.9,87,55,26,30.20,30.06,14,2,18,0.00
2013-5-14,73.3,59.0,40.5,54.1,45.5,36.6,94,63,40,30.27,30.10,18,3,20,0.00
2013-5-15,87.0,73.5,59.0,64.6,59.4,53.7,85,63,45,30.11,29.95,18,4,21,0.00
2013-5-16,81.1,74.2,63.5,64.1,60.2,54.5,83,62,50,30.03,29.96,13,3,18,0.00
2013-5-17,83.6,73.0,60.4,67.2,62.1,57.4,91,70,45,30.09,30.00,16,2,18,0.00
2013-5-18,75.5,68.3,62.3,69.3,64.5,59.3,94,88,72,30.13,30.04,10,1,13,0.64
2013-5-19,75.8,69.7,64.3,68.8,65.9,62.2,94,88,77,30.11,30.00,13,2,13,0.13
2013-5-20,85.0,71.3,61.6,71.6,65.9,59.9,95,84,58,30.12,30.01,8,1,10,0.00
2013-5-21,90.9,75.5,64.6,72.9,67.5,62.8,95,78,50,30.05,29.91,10,1,20,0.00
2013-5-22,84.4,72.9,63.5,72.4,66.7,61.1,93,81,64,30.00,29.84,16,2,22,0.42
2013-5-23,83.0,71.1,63.0,69.8,63.7,59.1,95,79,50,29.96,29.83,20,3,23,0.26
2013-5-24,74.2,65.5,53.2,60.5,50.6,39.3,92,62,31,30.23,29.90,16,2,21,0.00
2013-5-25,76.0,63.8,50.9,54.0,46.2,39.0,82,55,33,30.31,30.18,14,2,16,0.00
2013-5-26,76.0,62.8,52.5,57.4,50.6,44.4,88,66,42,30.31,30.18,13,1,14,0.00
2013-5-27,83.0,68.6,51.9,63.4,57.4,49.7,93,70,46,30.28,30.14,12,1,14,0.00
2013-5-28,83.7,73.0,62.9,66.7,62.8,58.8,91,72,49,30.23,30.13,14,2,16,0.00
2013-5-29,85.0,73.0,59.9,66.3,63.0,57.3,93,73,50,30.24,30.15,12,2,16,0.00
2013-5-30,85.0,72.4,61.0,68.4,63.3,58.8,94,75,48,30.28,30.15,10,1,16,0.00
2013-5-31,84.5,74.2,64.5,69.2,65.9,62.0,93,77,54,30.23,30.10,12,2,16,0.00
2013-6-1,84.3,75.5,68.2,68.6,66.7,64.4,88,75,57,30.13,30.00,14,3,18,0.00
2013-6-2,77.4,71.5,67.4,72.4,67.7,65.5,95,88,78,30.04,29.91,13,2,16,1.23
2013-6-3,84.0,72.6,64.9,72.9,68.2,63.4,96,87,63,29.96,29.85,10,1,12,0.01
2013-6-4,86.5,73.7,62.2,71.2,66.7,60.7,96,80,54,30.06,29.94,12,1,16,0.01
2013-6-5,83.0,72.3,68.0,74.1,67.9,65.1,95,86,71,30.08,29.95,14,2,14,0.18
2013-6-6,75.3,69.1,65.0,71.2,67.1,63.5,96,93,86,29.98,29.80,14,1,16,0.49
2013-6-7,82.3,71.6,66.9,73.8,68.4,65.7,96,90,73,29.84,29.68,14,2,17,0.40
2013-6-8,82.9,74.3,65.4,70.9,68.1,63.9,96,82,63,30.08,29.83,14,2,16,0.00
2013-6-9,85.8,73.2,66.7,75.3,69.2,64.9,95,88,68,30.14,30.04,10,1,13,0.38
2013-6-10,76.8,71.9,68.5,72.1,68.9,65.4,95,91,77,30.06,29.91,18,5,23,0.87
2013-6-11,91.8,77.3,68.8,76.0,69.7,64.3,95,80,43,30.00,29.92,16,3,17,0.22
2013-6-12,90.8,78.2,63.9,78.9,70.9,62.4,96,80,58,30.03,29.91,17,2,17,0.00
2013-6-13,91.0,80.0,69.0,75.4,71.5,65.6,91,76,52,29.91,29.69,20,4,27,0.01
2013-6-14,85.2,74.5,63.4,65.9,60.8,57.6,91,65,43,30.04,29.79,13,2,16,0.00
2013-6-15,84.3,71.9,56.9,65.0,60.7,54.1,92,70,50,30.15,30.03,12,2,14,0.00
2013-6-16,85.8,74.9,63.1,70.0,65.6,60.1,92,74,51,30.16,30.02,17,3,17,0.00
2013-6-17,83.6,75.0,68.7,76.4,70.5,66.9,95,86,74,30.05,29.93,27,2,27,1.21
2013-6-18,81.1,73.1,67.5,74.9,70.1,65.4,96,91,76,29.97,29.79,18,3,21,0.99
2013-6-19,83.8,73.4,66.0,72.0,67.3,64.0,96,83,62,30.11,29.91,12,1,14,0.00
2013-6-20,84.7,73.0,64.8,71.3,66.6,63.0,95,82,58,30.22,30.10,17,2,17,0.00
2013-6-21,85.6,73.4,63.1,70.1,65.1,61.5,95,77,52,30.27,30.16,13,1,16,0.00
2013-6-22,88.6,74.3,61.7,69.7,65.0,59.7,94,75,47,30.23,30.11,14,1,14,0.00
2013-6-23,88.5,75.3,66.3,75.8,69.1,63.8,94,82,58,30.21,30.10,9,1,12,0.01
2013-6-24,86.6,77.4,68.7,74.2,70.9,66.9,95,81,62,30.22,30.08,13,2,17,0.01
2013-6-25,87.8,77.5,71.7,75.9,71.6,69.5,94,83,60,30.15,30.01,14,2,18,0.03
2013-6-26,88.3,77.8,70.8,76.1,72.1,68.7,94,83,64,30.05,29.90,13,3,18,0.01
2013-6-27,88.0,78.0,71.6,78.5,73.1,68.4,95,86,69,29.95,29.71,26,4,31,1.05
2013-6-28,93.5,79.8,67.8,75.8,71.9,66.5,96,79,47,29.79,29.60,18,3,23,0.01
2013-6-29,87.5,77.6,68.5,72.7,69.5,66.6,95,78,53,29.70,29.62,14,3,16,0.00
2013-6-30,85.6,75.8,70.3,73.8,69.9,67.6,92,83,59,29.82,29.69,13,2,13,0.00
2013-7-1,84.1,74.2,69.0,73.5,69.5,66.9,94,86,67,29.95,29.80,12,1,18,0.20
2013-7-2,81.6,74.0,68.8,74.2,70.8,67.3,96,90,77,30.15,29.95,10,2,12,0.54
2013-7-3,81.7,73.5,66.9,74.2,70.3,65.4,96,90,76,30.24,30.13,16,1,23,0.78
2013-7-4,80.1,70.4,66.3,76.8,68.7,65.1,97,94,84,30.25,30.15,14,1,18,1.94
2013-7-5,86.4,71.9,68.5,75.5,69.5,67.3,97,92,68,30.27,30.19,12,0,21,0.19
2013-7-6,86.1,75.1,71.6,76.4,72.1,70.1,96,91,67,30.24,30.13,8,2,13,0.68
2013-7-7,84.9,76.6,72.6,74.9,72.4,69.7,95,87,72,30.19,30.10,12,3,14,0.04
2013-7-8,86.4,76.1,71.6,78.1,72.5,70.1,95,89,68,30.21,30.12,6,1,9,0.61
2013-7-9,88.4,78.0,70.3,77.1,72.8,68.7,96,85,65,30.21,30.07,16,2,20,0.26
2013-7-10,85.8,76.0,70.5,77.9,72.2,69.0,96,88,71,30.16,29.98,6,2,9,0.07
2013-7-11,81.7,76.1,72.6,75.5,73.0,70.7,95,90,80,29.99,29.89,5,1,10,0.00
2013-7-12,86.9,74.4,65.5,76.2,70.5,64.0,96,88,66,30.02,29.90,9,1,20,1.76
2013-7-13,78.4,70.8,64.4,72.8,68.4,62.6,96,92,82,30.14,30.02,8,2,12,0.02
2013-7-14,79.1,73.6,69.4,74.5,71.3,67.9,96,92,83,30.29,30.12,20,2,20,0.47
2013-7-15,86.1,75.7,69.4,76.1,71.6,68.2,97,88,69,30.35,30.27,9,1,12,0.01
2013-7-16,93.8,80.5,69.6,78.4,73.0,68.4,96,80,54,30.34,30.24,3,0,6,0.00
2013-7-17,95.1,79.4,69.0,79.3,72.8,66.2,96,82,52,30.27,30.13,23,1,27,0.96
2013-7-18,91.5,78.9,67.6,77.5,72.3,66.4,97,82,56,30.22,30.09,4,1,6,0.00
2013-7-19,89.1,79.6,70.1,76.6,73.3,68.3,95,82,63,30.14,30.00,8,2,14,0.00
2013-7-20,85.3,77.0,72.1,76.9,73.2,70.6,95,88,76,30.06,29.96,9,2,13,0.07
2013-7-21,87.8,75.8,70.7,76.8,72.3,69.2,96,89,66,30.04,29.96,8,1,10,0.61
2013-7-22,84.8,76.7,70.6,75.4,71.9,69.1,96,86,70,30.04,29.87,14,4,22,0.02
2013-7-23,88.3,78.2,70.4,75.6,71.7,68.2,94,81,59,29.92,29.81,10,3,16,0.00
2013-7-24,90.6,78.7,68.9,77.0,71.7,67.1,94,80,58,29.86,29.78,4,1,10,0.00
2013-7-25,87.8,74.5,66.5,74.6,68.9,64.4,96,84,61,30.05,29.86,10,1,13,1.39
2013-7-26,85.7,74.5,65.6,76.2,70.4,64.1,97,88,68,30.12,30.02,5,0,6,0.11
2013-7-27,82.5,75.3,71.0,74.5,71.6,69.2,95,89,72,30.05,29.92,8,2,13,0.32
2013-7-28,85.3,74.7,66.3,73.4,69.4,64.8,97,85,61,30.04,29.93,14,2,17,0.00
2013-7-29,89.5,76.1,64.0,72.7,68.6,62.1,94,79,56,30.18,30.04,5,0,5,0.00
2013-7-30,87.5,75.3,63.7,74.6,68.4,61.5,93,80,61,30.24,30.15,5,1,9,0.00
2013-7-31,79.7,73.7,70.7,74.1,71.1,69.2,95,92,82,30.19,30.00,5,0,10,0.30
2013-8-1,84.3,75.5,70.6,75.9,72.2,67.8,95,90,73,30.01,29.92,5,1,10,0.21
2013-8-2,90.1,77.6,66.6,76.0,70.8,65.1,96,81,58,30.06,29.95,5,0,6,0.00
2013-8-3,86.5,78.0,70.3,75.2,71.3,68.2,96,81,55,30.05,29.98,12,2,16,0.00
2013-8-4,91.2,78.9,68.9,75.3,70.8,64.8,93,78,57,30.05,29.96,5,1,12,0.00
2013-8-5,84.8,74.7,66.9,73.4,68.4,63.6,92,81,65,30.10,29.99,8,1,10,0.00
2013-8-6,85.2,75.7,70.1,76.1,71.6,68.4,96,88,72,30.08,29.98,8,1,13,1.40
2013-8-7,77.7,73.9,71.9,75.2,72.2,70.4,96,94,91,30.10,30.03,5,1,10,0.64
2013-8-8,82.1,76.2,71.1,76.6,72.7,69.9,97,89,78,30.10,30.04,8,1,13,0.00
2013-8-9,87.9,77.4,72.3,77.3,73.8,70.8,96,89,68,30.11,30.04,12,1,16,0.18
2013-8-10,88.8,78.7,72.1,78.8,74.6,70.3,97,88,70,30.14,30.08,10,2,17,0.36
2013-8-11,88.6,76.0,68.9,76.2,71.9,67.7,97,88,62,30.16,30.08,8,1,13,0.40
2013-8-12,92.0,78.3,69.7,78.7,73.3,68.5,96,86,64,30.11,29.98,6,1,12,0.21
2013-8-13,87.8,78.2,72.1,76.8,73.4,69.7,96,86,69,30.00,29.84,12,4,16,0.00
2013-8-14,83.1,73.8,69.1,71.6,68.0,64.4,93,83,66,30.09,29.89,5,1,10,0.00
2013-8-15,72.7,67.7,63.2,65.4,62.0,59.4,91,83,67,30.17,30.08,12,2,16,0.00
2013-8-16,72.6,65.4,61.2,65.4,61.8,59.5,95,88,76,30.20,30.12,12,2,16,0.30
2013-8-17,69.0,64.9,62.7,64.1,62.2,60.0,96,91,81,30.22,30.16,14,2,16,0.15
2013-8-18,76.9,69.0,64.3,71.9,66.8,63.1,97,93,82,30.26,30.18,3,0,6,0.41
2013-8-19,78.6,70.6,66.9,72.3,68.4,65.7,97,93,80,30.23,30.12,6,1,9,1.14
2013-8-20,81.4,72.4,66.9,74.2,69.6,65.7,97,91,75,30.23,30.14,3,0,4,0.02
2013-8-21,81.5,73.4,69.8,75.8,71.1,68.6,97,93,79,30.27,30.15,6,0,6,0.77
2013-8-22,88.9,75.0,68.5,77.0,71.3,67.6,97,89,63,30.19,30.06,5,1,16,0.70
2013-8-23,92.0,75.7,66.9,76.1,70.1,65.7,97,85,53,30.09,29.99,12,1,20,0.02
2013-8-24,82.3,71.6,63.2,68.9,65.0,61.2,96,81,58,30.32,30.09,14,3,17,0.00
2013-8-25,82.1,69.4,59.6,66.5,62.1,57.7,94,79,53,30.42,30.31,13,1,13,0.00
2013-8-26,87.2,70.7,57.8,70.2,63.0,56.4,95,79,52,30.36,30.17,5,1,8,0.00
2013-8-27,91.4,77.9,65.5,74.0,67.7,62.1,91,72,49,30.20,30.03,5,1,9,0.00
2013-8-28,91.5,79.6,68.1,76.2,70.6,64.7,89,75,55,30.06,29.96,8,1,10,0.00
2013-8-29,94.8,80.2,68.8,79.7,72.3,66.2,92,78,57,29.99,29.91,6,1,12,0.00
2013-8-30,87.0,78.1,73.3,74.9,71.3,68.2,88,80,66,30.07,29.96,4,1,14,0.00
2013-8-31,86.9,76.1,70.0,76.8,70.7,67.3,93,84,67,29.99,29.91,8,1,14,0.14
2013-9-1,86.7,76.4,69.0,76.6,71.1,66.7,93,84,69,29.95,29.84,12,3,16,0.00
2013-9-2,86.9,78.5,72.2,75.8,72.2,69.3,93,82,67,29.94,29.84,6,1,10,0.01
2013-9-3,90.4,76.3,67.2,76.2,68.5,63.4,92,78,56,30.00,29.86,5,1,10,0.03
2013-9-4,89.3,75.5,66.0,74.2,67.2,63.0,90,77,54,30.12,29.99,4,0,6,0.00
2013-9-5,91.7,76.5,64.3,75.1,67.8,61.9,93,76,47,30.16,30.07,5,1,10,0.00
2013-9-6,86.8,72.8,62.0,69.0,63.5,58.7,89,74,51,30.22,30.10,12,1,16,0.00
2013-9-7,83.9,72.1,62.9,70.3,64.5,60.1,92,78,59,30.17,30.03,6,1,13,0.00
2013-9-8,88.5,75.1,63.6,75.0,67.3,60.9,92,78,53,30.04,29.96,5,0,9,0.00
2013-9-9,90.1,76.1,66.2,73.4,68.0,63.5,92,77,54,30.16,30.02,6,1,9,0.00
2013-9-10,89.9,76.0,65.3,74.0,68.2,62.8,94,78,55,30.27,30.16,5,1,8,0.00
2013-9-11,88.6,75.8,64.7,72.6,67.7,62.3,93,77,54,30.25,30.12,9,1,12,0.00
2013-9-12,90.0,76.2,68.2,73.4,68.7,64.5,90,79,54,30.12,29.90,9,1,14,0.04
2013-9-13,87.2,74.6,65.1,68.2,64.0,56.0,91,71,49,29.92,29.82,5,1,10,0.00
2013-9-14,79.8,66.0,54.3,62.8,56.0,50.2,87,71,52,30.15,29.93,10,2,17,0.00
2013-9-15,83.3,68.3,58.3,69.5,61.3,55.0,91,79,60,30.25,30.14,5,1,8,0.00
2013-9-16,88.2,73.7,62.9,70.6,65.0,60.0,93,76,50,30.17,30.08,5,0,8,0.00
2013-9-17,73.2,68.1,64.2,63.2,59.6,56.8,81,74,65,30.33,30.18,13,2,16,0.00
2013-9-18,74.6,66.4,59.1,63.2,58.7,54.5,85,77,63,30.33,30.20,4,1,9,0.00
2013-9-19,84.3,69.7,58.0,69.7,62.6,55.4,93,79,59,30.23,30.11,4,0,9,0.00
2013-9-20,84.9,72.4,62.5,69.4,64.6,59.8,93,78,56,30.12,29.95,12,2,13,0.00
2013-9-21,72.8,68.8,63.7,68.8,64.9,60.4,92,87,79,29.97,29.70,9,2,13,2.05
2013-9-22,80.1,67.1,56.9,66.7,60.4,54.4,93,80,59,29.94,29.77,9,1,10,0.00
2013-9-23,78.4,65.7,58.9,64.5,58.6,55.1,91,79,57,30.09,29.94,10,1,10,0.00
2013-9-24,75.9,65.6,55.9,65.8,60.0,53.4,93,83,66,30.11,29.98,4,1,8,0.00
2013-9-25,67.3,64.0,62.2,62.0,60.7,59.4,92,89,80,29.97,29.91,4,1,9,1.01
2013-9-26,76.6,65.1,57.1,64.4,59.3,53.6,92,82,62,30.07,29.92,8,1,13,0.00
2013-9-27,77.9,64.3,54.3,63.6,56.7,51.1,91,78,55,30.22,30.07,8,1,14,0.00
2013-9-28,73.4,62.8,54.3,60.9,55.9,51.4,92,79,61,30.29,30.18,12,1,13,0.00
2013-9-29,74.8,62.5,52.3,61.7,55.6,49.2,91,79,60,30.23,30.08,6,1,8,0.00
2013-9-30,77.0,64.1,54.2,64.8,57.3,51.2,91,80,56,30.15,30.04,5,0,8,0.00
2013-10-1,81.4,66.3,54.4,65.0,57.6,51.5,91,75,51,30.19,30.09,9,1,12,0.00
2013-10-2,84.7,69.2,57.6,68.3,60.5,53.5,90,75,51,30.19,30.11,4,0,6,0.00
2013-10-3,82.7,69.2,58.4,66.2,60.5,54.5,89,75,54,30.17,30.10,8,1,10,0.00
2013-10-4,87.4,70.8,58.5,70.1,62.1,54.3,89,75,51,30.19,30.11,8,0,8,0.00
2013-10-5,89.0,71.8,59.5,70.0,62.5,55.3,89,74,50,30.17,30.06,6,0,6,0.00
2013-10-6,83.0,69.7,59.5,68.6,61.9,55.3,88,77,59,30.08,29.91,8,1,10,0.00
2013-10-7,76.4,67.5,55.9,66.7,60.5,49.5,87,78,66,30.03,29.84,5,1,10,1.08
2013-10-8,70.4,61.6,54.9,56.4,51.6,48.4,81,70,59,30.24,30.02,14,4,21,0.00
2013-10-9,73.9,60.5,52.1,56.2,48.6,44.4,80,66,44,30.27,30.15,10,2,21,0.00
2013-10-10,79.6,62.4,45.6,60.9,51.9,41.4,88,70,47,30.18,30.04,5,1,10,0.00
2013-10-11,82.6,68.3,57.9,62.6,55.9,50.7,77,66,39,30.06,29.96,5,1,9,0.00
2013-10-12,78.8,65.9,54.9,65.5,57.4,50.2,86,75,58,30.13,30.00,3,0,10,0.00
2013-10-13,76.1,67.6,63.0,64.8,60.2,57.4,85,77,67,30.24,30.13,9,1,13,0.00
2013-10-14,71.0,65.3,62.5,61.1,58.7,56.8,85,79,71,30.26,30.18,12,2,14,0.00
2013-10-15,70.2,61.9,55.7,59.6,55.0,51.0,84,78,69,30.23,30.10,9,1,14,0.00
2013-10-16,73.0,62.4,52.5,61.4,55.2,48.4,89,78,64,30.12,30.00,8,1,9,0.00
2013-10-17,67.8,64.5,60.9,62.0,58.8,55.5,86,82,74,30.02,29.91,9,2,12,0.25
2013-10-18,71.8,61.6,51.5,60.9,55.0,47.6,89,79,64,30.07,29.93,6,0,8,0.00
2013-10-19,62.7,59.6,51.4,56.8,54.0,47.0,87,82,74,30.01,29.91,12,2,18,0.03
2013-10-20,69.8,54.6,44.9,53.9,45.9,39.4,85,74,50,30.12,29.98,8,0,9,0.00
2013-10-21,68.0,55.5,45.0,56.2,48.6,40.8,87,78,65,30.18,30.03,14,2,14,0.00
2013-10-22,67.1,61.4,55.6,55.8,53.1,50.6,84,74,60,30.05,29.82,10,4,17,0.00
2013-10-23,64.5,55.3,39.3,51.6,41.9,32.4,80,62,36,30.07,29.76,18,4,22,0.00
2013-10-24,61.6,46.6,33.7,46.5,36.9,29.0,85,70,49,30.22,30.07,10,2,16,0.00
2013-10-25,56.2,44.1,34.3,39.8,32.9,28.5,83,66,43,30.42,30.20,8,1,18,0.00
2013-10-26,56.6,43.5,29.5,41.6,33.3,25.0,86,69,49,30.41,30.10,16,2,16,0.00
2013-10-27,69.8,54.5,40.0,55.6,45.2,35.2,86,72,56,30.14,30.05,10,2,16,0.00
2013-10-28,67.9,59.2,52.6,56.7,51.9,46.9,85,77,66,30.24,30.10,9,1,13,0.01
2013-10-29,73.5,60.3,49.3,57.9,51.7,45.0,87,74,54,30.32,30.22,9,1,12,0.00
2013-10-30,77.7,64.4,53.9,61.4,55.1,48.5,84,72,57,30.27,30.14,10,2,16,0.00
2013-10-31,71.4,64.0,56.0,61.5,55.9,50.7,84,75,68,30.16,29.88,9,2,14,0.00
2013-11-1,69.8,65.5,58.7,60.4,57.9,53.6,83,77,72,29.88,29.65,16,4,22,0.08
2013-11-2,68.3,57.2,44.7,53.0,44.6,37.6,84,65,38,30.00,29.72,12,2,18,0.00
2013-11-3,65.2,49.3,38.6,43.0,38.2,33.6,84,68,40,30.36,30.00,9,1,13,0.00
2013-11-4,60.2,47.0,38.8,41.2,36.2,32.5,78,68,44,30.52,30.36,9,1,14,0.00
2013-11-5,60.4,47.1,36.8,46.9,38.6,30.6,81,73,59,30.55,30.42,12,2,17,0.00
2013-11-6,70.3,57.1,50.8,58.2,49.4,44.6,83,76,64,30.42,30.12,8,1,12,0.00
2013-11-7,70.5,56.6,46.5,58.9,46.8,35.4,88,71,49,30.14,29.97,16,2,18,0.00
2013-11-8,64.1,48.7,38.8,34.6,30.6,28.5,70,52,26,30.32,30.13,20,3,22,0.00
2013-11-9,58.0,46.3,32.9,39.7,33.0,26.8,78,61,39,30.38,30.22,10,2,13,0.00
2013-11-10,73.3,56.4,42.0,43.8,38.6,34.3,76,54,30,30.24,30.12,12,1,12,0.00
2013-11-11,63.4,48.8,37.5,37.8,33.1,29.6,74,57,32,30.35,30.15,8,1,12,0.00
2013-11-12,66.2,46.6,29.8,43.4,32.5,17.1,78,59,34,30.46,30.07,13,3,26,0.00
2013-11-13,52.4,35.9,27.1,23.0,18.9,16.0,72,53,25,30.56,30.45,5,1,12,0.00
2013-11-14,58.8,40.9,25.9,26.7,23.1,19.8,78,53,25,30.50,30.34,12,2,14,0.00
2013-11-15,57.9,46.9,32.9,44.5,36.2,24.8,85,68,40,30.35,30.20,4,0,8,0.21
2013-11-16,62.9,54.4,48.5,54.1,48.7,44.1,87,81,72,30.27,30.18,4,0,8,0.01
2013-11-17,65.0,58.9,55.2,56.7,53.1,49.2,87,81,73,30.21,29.89,4,0,8,0.77
2013-11-18,75.6,62.4,51.4,59.4,49.8,35.0,89,66,36,29.97,29.84,13,3,17,0.02
2013-11-19,59.0,49.0,41.2,36.6,31.9,28.5,72,53,34,30.25,29.96,12,2,14,0.00
2013-11-20,53.2,44.8,37.3,35.2,32.6,29.5,73,63,47,30.44,30.24,12,3,17,0.00
2013-11-21,50.9,47.5,44.5,45.2,39.7,34.4,85,74,65,30.47,30.37,9,2,14,0.07
2013-11-22,60.4,55.5,49.5,53.9,50.3,45.2,86,83,78,30.40,30.12,12,2,16,0.06
2013-11-23,59.7,53.2,39.5,53.4,43.8,26.9,88,71,45,30.20,30.07,10,2,14,0.00
2013-11-24,44.6,35.0,27.7,27.9,17.6,14.3,66,50,32,30.54,30.20,16,3,17,0.00
2013-11-25,42.1,33.6,23.3,19.3,16.2,11.8,74,51,30,30.57,30.33,5,1,12,0.00
2013-11-26,46.7,38.9,32.1,43.3,34.6,18.0,88,84,46,30.33,29.65,13,1,14,3.10
2013-11-27,47.1,39.1,28.2,43.7,30.5,19.3,88,72,48,30.22,29.55,10,2,25,0.12
2013-11-28,48.0,32.8,20.9,29.2,22.3,16.0,81,66,41,30.50,30.22,8,1,12,0.00
2013-11-29,56.8,39.7,26.8,31.0,26.7,21.8,81,63,32,30.59,30.47,8,1,10,0.00
2013-11-30,49.0,37.8,32.4,29.7,26.7,24.7,75,65,43,30.64,30.39,13,2,17,0.00
2013-12-1,56.3,42.5,33.6,42.3,32.6,26.5,82,69,50,30.38,30.03,9,1,12,0.00
2013-12-2,58.6,46.0,33.0,46.6,38.4,28.7,87,75,52,30.03,29.82,10,1,12,0.00
2013-12-3,57.1,53.0,49.4,49.5,47.5,44.3,86,82,75,29.95,29.86,6,1,8,0.13
2013-12-4,61.5,56.5,53.1,57.7,52.7,49.2,88,87,86,30.07,29.93,5,0,12,0.06
2013-12-5,68.5,64.3,60.7,63.2,59.9,56.8,88,86,82,30.08,29.98,13,3,20,0.25
2013-12-6,73.4,69.1,66.7,63.1,61.4,60.4,83,77,69,30.03,29.93,18,6,23,0.08
2013-12-7,66.7,56.9,49.2,60.7,49.0,40.6,83,75,67,30.35,29.96,13,4,16,0.05
2013-12-8,49.2,39.8,36.2,40.8,35.0,32.4,86,83,73,30.38,30.26,10,3,14,0.27
2013-12-9,45.6,41.0,36.0,41.7,37.3,32.2,91,87,86,30.28,30.06,8,1,9,0.69
2013-12-10,55.8,46.2,35.1,49.3,38.9,26.0,88,76,51,30.32,29.92,13,2,16,0.22
2013-12-11,51.7,37.8,26.7,33.2,27.2,21.7,82,67,39,30.45,30.30,14,2,16,0.00
2013-12-12,52.7,38.4,28.7,28.5,22.8,14.6,77,55,29,30.42,30.31,8,1,9,0.00
2013-12-13,52.6,38.0,24.6,33.1,25.0,17.2,78,61,38,30.40,30.26,14,1,14,0.00
2013-12-14,42.9,41.2,39.5,38.7,35.1,30.8,86,79,68,30.28,29.82,5,1,16,1.21
2013-12-15,53.0,43.5,30.6,43.0,36.5,25.5,88,77,56,30.13,29.76,13,2,14,0.01
2013-12-16,60.0,43.7,27.9,36.9,30.6,23.4,86,63,34,30.19,30.10,13,4,20,0.00
2013-12-17,63.3,50.8,40.7,39.6,35.5,21.5,75,57,32,30.16,29.96,14,6,21,0.00
2013-12-18,54.8,41.2,31.0,27.6,24.8,21.5,74,54,29,30.30,30.05,14,1,21,0.00
2013-12-19,61.6,45.1,28.3,32.9,26.3,22.6,79,52,23,30.34,30.23,9,2,14,0.00
2013-12-20,59.1,51.7,40.2,49.9,40.1,31.9,74,65,46,30.24,30.14,10,2,16,0.00
2013-12-21,64.6,57.7,53.8,58.7,51.3,47.1,86,79,74,30.14,29.97,5,0,8,0.02
2013-12-22,69.3,64.0,59.8,61.2,58.3,55.6,86,82,75,30.04,29.95,17,3,22,1.47
2013-12-23,59.8,54.6,44.9,55.5,48.7,36.1,87,80,71,30.15,29.96,10,2,13,0.61
2013-12-24,47.5,39.1,27.7,35.7,27.9,19.3,78,64,48,30.44,30.14,10,2,14,0.00
2013-12-25,42.6,31.2,22.2,23.9,18.3,14.2,79,61,32,30.56,30.41,9,1,12,0.00
2013-12-26,56.1,38.4,26.4,33.2,25.4,19.8,77,61,35,30.41,30.26,5,1,6,0.00
2013-12-27,54.0,39.4,30.7,31.9,25.7,21.8,77,60,34,30.48,30.36,5,1,6,0.00
2013-12-28,49.5,38.6,27.7,36.6,30.4,22.4,84,73,49,30.42,30.12,3,0,6,0.41
2013-12-29,60.9,46.4,39.7,50.7,41.0,35.3,87,81,68,30.12,29.81,10,2,17,0.83
2013-12-30,53.4,44.7,35.9,43.0,37.8,30.8,86,77,66,30.13,29.96,10,2,12,0.00
2013-12-31,51.7,40.6,33.0,37.5,30.6,26.3,82,69,43,30.37,30.12,5,0,6,0.00
2014-1-1,48.9,39.0,30.4,36.0,30.2,25.0,80,71,52,30.40,30.15,6,1,9,0.00
2014-1-2,46.0,42.5,30.3,41.8,36.2,20.0,85,78,64,30.15,29.68,12,3,21,0.15